EW7285 Weather Reports


time (UTC)temp
F
wind
direction
speed
knots
gust
knots
rain 1hr
in
rain 24hr
in
rain mn
in
humidity
%
barometer
mb
20260503021532 49 319 2.6 7.0 0.02 0.02 0.02 85 1006.6
20260503020007 51 5 1.7 3.5 0.01 0.01 0.01 81 1006.2
20260503014503 52 350 2.6 4.3 0.00 0.00 0.00 75 1006.2
20260503013059 53 360 3.5 8.7 0.00 0.00 0.00 70 1006.2
20260503011602 55 338 5.2 9.6 0.00 0.00 0.00 61 1006.6
20260503010058 56 350 6.1 12.2 0.00 0.00 0.00 57 1006.9
20260503004557 57 327 5.2 7.8 0.00 0.00 0.00 56 1006.7
20260503003059 57 318 4.3 7.8 0.00 0.00 0.00 55 1006.5
20260503001546 57 291 2.6 7.0 0.00 0.00 0.00 53 1006.1
20260503000035 58 306 4.3 7.8 0.00 0.00 0.00 53 1006.0
20260502234531 58 316 0.9 3.5 0.00 0.00 0.00 51 1005.6
20260502233028 59 329 2.6 4.3 0.00 0.00 0.00 49 1005.7
20260502231527 60 351 2.6 5.2 0.00 0.00 0.00 48 1005.7
20260502230022 61 5 7.0 9.6 0.00 0.00 0.00 46 1005.8
20260502224530 62 264 3.5 7.8 0.00 0.00 0.00 45 1005.6
20260502223014 63 254 4.3 8.7 0.00 0.00 0.00 44 1005.6
20260502221511 63 261 4.3 9.6 0.00 0.00 0.00 44 1005.7
20260502220008 63 261 5.2 8.7 0.00 0.00 0.00 43 1005.6
20260502214506 64 267 3.5 9.6 0.00 0.00 0.00 43 1005.7
20260502213008 64 238 5.2 9.6 0.00 0.00 0.00 43 1005.9
20260502211505 64 229 4.3 17.4 0.00 0.00 0.00 42 1005.9
20260502210004 65 260 6.1 12.2 0.00 0.00 0.00 40 1005.9
20260502204503 65 238 7.8 13.0 0.00 0.00 0.00 39 1006.1
20260502203002 65 238 9.6 15.6 0.00 0.00 0.00 38 1005.9
20260502201502 66 217 8.7 18.2 0.00 0.00 0.00 38 1006.0
20260502200002 66 266 6.1 14.8 0.00 0.00 0.00 39 1006.0
20260502194500 66 238 8.7 13.0 0.00 0.00 0.00 40 1005.8
20260502193100 65 236 3.5 9.6 0.00 0.00 0.00 41 1005.8
20260502193001 65 217 3.5 9.6 0.00 0.00 0.00 41 1005.8
20260502191610 64 225 0.9 3.5 0.00 0.00 0.00 41 1005.8
20260502190059 65 242 0.0 2.6 0.00 0.00 0.00 40 1005.6
20260502184600 66 242 0.0 0.0 0.00 0.00 0.00 39 1005.5
20260502183111 67 242 1.7 5.2 0.00 0.00 0.00 37 1005.4
20260502181557 68 247 2.6 7.0 0.00 0.00 0.00 37 1005.5
20260502163053 72 219 6.1 12.2 0.00 0.00 0.00 34 1005.5
20260502161549 72 221 5.2 15.6 0.00 0.00 0.00 35 1005.7
20260502151539 72 262 10.4 14.8 0.00 0.00 0.00 34 1006.4
20260502123009 71 230 13.0 18.2 0.00 0.00 0.00 35 1008.6
20260502121506 70 190 8.7 20.9 0.00 0.00 0.00 37 1008.7
20260502114502 69 263 12.2 23.5 0.00 0.00 0.00 36 1009.3
20260502113116 69 220 14.8 26.1 0.00 0.00 0.00 37 1009.6
20260502111606 68 262 15.6 21.7 0.00 0.00 0.00 38 1009.9
20260502110104 68 231 13.0 22.6 0.00 0.00 0.00 38 1010.0
20260502104555 68 244 12.2 20.9 0.00 0.00 0.00 38 1010.3
20260502103112 67 235 13.0 24.3 0.00 0.00 0.00 38 1010.2
20260502101557 66 235 15.6 24.3 0.00 0.00 0.00 39 1010.5
20260502100148 66 242 12.2 21.7 0.00 0.00 0.00 39 1010.6
20260502071521 60 234 13.9 24.3 0.00 0.00 0.00 39 1012.1
20260502070018 59 223 11.3 19.1 0.00 0.00 0.00 42 1012.0
20260502064515 59 246 11.3 18.2 0.00 0.00 0.00 43 1012.1
20260502063013 58 217 13.0 20.9 0.00 0.00 0.00 43 1012.2
20260502061512 58 215 7.0 13.9 0.00 0.00 0.00 47 1012.4
20260502060010 57 223 8.7 13.9 0.00 0.00 0.00 47 1012.3
20260502054511 57 202 6.1 11.3 0.00 0.00 0.00 48 1012.4
20260502053009 56 225 6.1 10.4 0.00 0.00 0.00 50 1012.5
20260502051506 55 243 6.1 13.9 0.00 0.00 0.00 51 1012.6
20260502050003 55 210 6.1 10.4 0.00 0.00 0.00 53 1012.7
20260502044501 54 237 7.0 11.3 0.00 0.00 0.00 54 1012.7
20260502043108 54 245 4.3 13.0 0.00 0.00 0.00 56 1012.7
20260502041557 53 208 6.1 10.4 0.00 0.00 0.00 56 1012.8
20260502040055 53 232 3.5 8.7 0.00 0.00 0.00 57 1012.8
20260502034554 52 230 3.5 7.8 0.00 0.00 0.00 58 1012.9
20260502033052 52 198 4.3 7.0 0.00 0.00 0.00 58 1012.9
20260502031550 52 189 3.5 7.8 0.00 0.00 0.00 58 1013.0
20260502030100 52 238 5.2 8.7 0.00 0.00 0.00 58 1013.2
20260502024545 52 200 3.5 9.6 0.00 0.00 0.00 57 1013.4
20260502023043 53 221 3.5 6.1 0.00 0.00 0.00 57 1013.5